Location: Key Biscayne
(25.6930°N, 80.1630°W)
Time: 03:34:08
(UTC-05:00)

Tiangong 1 - Pass Details

Date: 17 November 2017
Orbit: 285 x 309 km, 42.8° (Epoch: 18 November)

Event Time Altitude Azimuth Distance (km) Brightness Sun altitude
Exits shadow 05:28:10 20° 201° (SSW) 744 2.4 -16.3°
Drops below altitude 10° 05:29:38 10° 168° (SSE) 1,128 3.8 -16.0°
Sets 05:31:48 0° 151° (SSE) 1,948 5.3 -15.5°
